Back to catalog

STARLINK-3910

AliveCommunicationsVLEO
NORAD 52586·PAYLOAD·🇺🇸 United States

Launched May 13, 2022 from Vandenberg Space Force Base

Loading…

Next Passes (next 24 hours)

TLE

FreshSource: CelesTrak SupGP

Epoch: Sep 14, 2026, 21:26 UTC

1 52586C 22051BC  26257.89354167 -.00033181  00000+0 -94963-3 0  2579
2 52586  53.1595 343.9596 0001131  77.9109 300.7810 15.35405877    19

Track STARLINK-3910 in real time with AllMySat

Download on the App Store